Tracking 19293 objects as of 21-Nov-2018
HD Live streaming from Space Station
objects crossing your sky now

IUE

Track IUE now!
IUE is classified as:


NORAD ID: 10637
Int'l Code: 1978-012A
Perigee: 29,080.8 km
Apogee: 42,622.3 km
Inclination: 42.4 °
Period: 1,439.1 minutes
Semi major axis: 42222 km
RCS: 5.9851 m2 (large)
Launch date: January 26, 1978
Source: United States (US)
Launch site: AIR FORCE EASTERN TEST RANGE (AFETR)

The International Ultraviolet Explorer (IUE, formerly SAS-D) satellite was a spaceborne ultraviolet astronomical observatory for use as an international facility. IUE was shut down at 18:42 UT, 30 September 1996.
aabbcc
Your satellite tracking list
Your tracking list is empty




NASA's NSSDC Master Catalog

Two Line Element Set (TLE):
1 10637U 78012A   18324.65907182 +.00000063 +00000-0 +00000-0 0  9990
2 10637 042.4282 328.7965 1603590 220.3004 146.0392 01.00065973101408
Source of the keplerian elements: AFSPC